Wind_Speed
24 25 27 28 30 30 30 28 26 25 24 23 24 24 24 26 28 27 27 25 23 22 21 21 20 20 21 20 19 20 18 16
25 26 28 29 31 32 30 27 27 26 25 25 25 26 26 26 28 30 30 30 29 27 25 25 25 24 24 24 24 24 25 20
25 27 29 30 31 30 28 27 27 25 25 25 25 26 27 28 29 30 29 29 30 30 28 28 27 27 28 28 29 29 31 27
26 25 27 26 26 26 25 24 25 25 25 24 24 25 25 26 27 28 29 29 30 30 29 30 30 29 29 31 32 33 33 32
28 31 30 29 28 27 27 27 28 29 29 30 29 28 28 29 30 32 32 36 30 30 31 34 35 35 33 35 35 35 36 36
33 35 35 35 34 33 32 32 33 33 34 35 36 36 36 36 38 39 39 33 34 42 40 39 42 38 43 41 42 38 40 39
36 35 35 39 40 40 39 38 38 40 40 40 41 43 46 48 50 48 47 44 41 43 45 45 45 46 48 48 44 43 43 45
35 33 33 34 34 35 36 36 37 39 41 43 44 46 45 47 50 52 53 52 50 48 49 51 51 51 50 50 49 46 47 46
33 30 29 31 32 32 34 35 37 38 40 42 43 44 45 45 45 47 48 49 50 50 52 51 50 50 52 52 51 51 52 50
33 33 33 32 32 32 33 33 33 34 36 38 40 42 44 46 49 49 50 50 49 51 52 52 52 52 50 51 52 54 53 54
33 33 32 30 29 30 30 32 33 34 36 39 41 43 45 47 50 52 54 56 56 56 57 57 56 55 55 55 55 56 57 57
32 31 30 30 31 32 33 34 35 37 39 41 44 46 48 51 53 56 59 61 62 62 60 63 62 60 60 60 59 59 60 62
29 30 31 33 33 32 33 35 37 38 41 43 45 48 51 54 57 60 62 65 67 68 68 66 65 66 66 64 63 63 65 66
31 31 32 34 35 35 36 38 40 43 45 48 51 55 59 63 67 68 67 61 57 59 59 61 63 67 67 67 64 66 66 68
32 33 34 35 37 38 39 41 44 47 50 52 56 59 63 68 72 72 66 60 58 60 62 65 66 67 72 68 67 67 66 68
35 35 37 38 39 40 42 45 48 50 53 56 58 61 68 72 72 69 63 61 61 61 61 63 67 70 72 73 73 71 70 69
36 37 38 40 41 44 46 49 51 52 54 56 60 65 65 66 62 62 61 60 54 54 54 55 57 60 63 65 69 71 72 72
39 39 40 42 44 47 49 52 52 52 53 56 59 62 61 60 58 59 58 54 55 53 52 52 54 56 56 58 64 67 68 68
40 41 42 43 45 49 50 51 51 52 54 55 57 57 58 58 59 59 56 55 56 56 58 57 54 53 53 51 54 56 57 58
44 44 45 45 47 50 50 50 51 53 55 55 57 55 57 59 57 55 54 52 53 55 54 54 54 51 51 48 49 50 49 54
Wind_Direction
264 265 267 269 271 272 273 274 276 279 278 274 273 272 276 278 275 271 269 269 268 268 269 271 274 276 278 279 277 274 270 273
269 268 268 267 268 271 274 281 281 280 280 278 274 273 275 276 277 277 275 276 275 272 272 274 274 274 278 280 276 274 270 264
264 263 261 263 267 274 278 278 278 279 281 283 282 276 275 274 275 274 274 276 277 278 276 276 273 273 272 270 270 271 271 270
270 270 272 276 279 280 281 283 286 287 287 284 282 281 277 275 271 269 271 271 274 275 276 277 276 270 268 266 266 266 266 267
271 274 275 274 274 277 281 284 284 285 287 286 285 283 281 278 276 276 273 273 274 280 279 278 277 276 274 276 274 271 269 267
271 268 269 271 275 276 277 278 281 282 283 285 286 285 284 280 280 280 280 288 276 282 283 283 279 278 277 272 273 270 272 270
284 278 273 270 271 273 275 278 279 281 280 281 282 283 286 288 287 285 285 283 277 275 278 281 279 279 280 279 276 278 279 268
281 279 276 275 275 274 275 277 280 280 279 279 280 282 282 282 282 283 283 284 283 280 278 278 277 278 277 276 276 273 273 273
275 276 275 273 273 274 275 276 278 280 282 283 283 282 282 283 282 282 281 281 280 277 275 276 276 275 275 273 272 271 273 274
271 272 272 273 273 272 273 275 278 280 280 280 281 282 282 282 282 281 279 278 276 276 275 274 273 273 271 269 270 271 270 271
274 276 277 277 276 278 280 283 285 284 284 284 284 284 284 284 283 282 281 280 279 278 277 275 273 271 270 269 268 268 270 270
278 278 279 279 279 280 281 283 282 283 285 286 287 287 286 286 285 284 283 281 279 277 274 273 273 273 271 268 268 269 270 271
276 277 277 278 279 280 281 284 285 288 290 292 290 288 287 286 284 283 282 279 279 276 272 271 271 269 269 269 267 267 267 268
275 277 278 281 284 285 286 288 291 293 293 293 292 292 293 295 297 296 295 291 281 275 268 268 268 268 264 264 264 265 264 265
277 278 281 282 282 284 288 290 292 293 293 293 295 296 297 296 294 294 295 289 281 273 267 265 263 261 264 261 258 257 258 261
275 277 278 279 283 287 289 291 293 293 294 294 294 296 295 293 293 295 292 285 279 276 273 269 267 265 265 264 263 257 253 254
277 278 280 282 285 289 291 293 294 293 295 296 296 298 296 296 295 292 288 285 283 282 280 275 271 266 265 266 266 264 262 256
282 283 284 284 287 289 291 292 291 293 296 299 301 301 303 299 293 289 286 284 285 285 284 283 277 272 268 271 268 266 265 262
282 282 283 285 288 290 289 289 293 296 300 302 301 301 303 297 291 288 287 286 286 286 286 283 281 278 273 275 268 264 262 263
283 284 285 286 288 287 287 292 296 299 300 302 302 303 300 295 291 288 287 287 287 288 291 287 281 279 277 278 264 257 263 260
Height
5861 5859 5858 5857 5856 5855 5854 5854 5854 5854 5854 5854 5853 5852 5852 5852 5852 5851 5849 5848 5847 5847 5846 5845 5844 5843 5842 5841 5840 5839 5839 5840
5853 5853 5852 5851 5850 5849 5849 5850 5849 5848 5848 5848 5848 5847 5847 5847 5847 5847 5846 5846 5845 5843 5842 5841 5841 5839 5839 5837 5836 5834 5831 5834
5846 5844 5844 5844 5844 5844 5844 5843 5842 5842 5841 5841 5841 5841 5842 5842 5842 5842 5841 5841 5841 5841 5839 5837 5836 5835 5834 5832 5830 5829 5826 5827
5840 5840 5841 5840 5839 5838 5839 5839 5838 5837 5836 5835 5834 5834 5835 5836 5836 5836 5836 5835 5836 5835 5834 5833 5831 5830 5827 5825 5823 5822 5820 5820
5837 5835 5834 5834 5834 5834 5833 5832 5832 5831 5831 5831 5830 5829 5829 5829 5830 5830 5830 5831 5829 5830 5829 5827 5825 5824 5822 5822 5819 5818 5816 5815
5830 5829 5827 5827 5826 5826 5827 5827 5826 5825 5824 5823 5822 5823 5823 5822 5821 5822 5821 5820 5823 5822 5821 5821 5819 5816 5815 5813 5811 5810 5812 5810
5821 5821 5819 5819 5818 5817 5817 5817 5818 5817 5817 5817 5815 5813 5813 5812 5813 5813 5811 5812 5814 5813 5812 5811 5809 5808 5806 5804 5803 5803 5803 5803
5814 5812 5811 5811 5809 5809 5809 5808 5808 5808 5807 5807 5807 5806 5805 5804 5802 5803 5802 5801 5800 5800 5799 5798 5797 5796 5794 5794 5793 5793 5793 5793
5807 5806 5805 5803 5803 5802 5801 5801 5800 5800 5799 5798 5797 5795 5794 5794 5793 5792 5791 5791 5790 5789 5788 5786 5785 5784 5783 5783 5782 5781 5780 5780
5799 5799 5798 5796 5796 5795 5793 5793 5792 5792 5791 5789 5787 5786 5784 5783 5782 5781 5780 5779 5779 5777 5776 5774 5774 5773 5772 5772 5770 5768 5769 5767
5791 5790 5790 5788 5787 5786 5785 5785 5785 5783 5782 5780 5779 5777 5775 5773 5771 5769 5767 5766 5766 5764 5762 5761 5761 5760 5761 5760 5757 5756 5754 5753
5784 5784 5783 5781 5779 5778 5777 5777 5775 5774 5773 5771 5768 5766 5763 5761 5759 5757 5754 5753 5751 5749 5749 5746 5746 5746 5746 5746 5745 5742 5740 5737
5776 5775 5775 5773 5771 5770 5769 5767 5765 5763 5762 5760 5757 5754 5751 5748 5746 5743 5740 5737 5734 5732 5730 5729 5727 5729 5729 5729 5730 5731 5729 5725
5767 5766 5765 5763 5761 5758 5757 5755 5753 5751 5749 5748 5744 5739 5736 5732 5728 5724 5720 5716 5714 5713 5711 5710 5711 5707 5708 5711 5713 5712 5715 5712
5757 5756 5754 5752 5750 5748 5746 5744 5742 5740 5737 5735 5731 5725 5721 5718 5713 5708 5703 5700 5697 5694 5693 5692 5692 5692 5687 5690 5692 5695 5697 5696
5747 5746 5745 5743 5740 5738 5735 5733 5730 5727 5724 5722 5719 5714 5709 5704 5698 5692 5687 5684 5680 5677 5674 5674 5674 5673 5670 5670 5670 5674 5678 5682
5737 5735 5734 5732 5729 5726 5723 5720 5717 5714 5710 5707 5705 5702 5695 5689 5684 5679 5673 5668 5665 5661 5659 5657 5656 5655 5654 5652 5651 5653 5658 5664
5726 5725 5722 5719 5716 5714 5711 5708 5705 5701 5696 5692 5689 5684 5680 5675 5669 5664 5659 5654 5650 5647 5645 5643 5641 5639 5639 5637 5635 5635 5638 5644
5715 5713 5711 5707 5705 5702 5699 5695 5691 5687 5682 5678 5674 5669 5665 5659 5653 5649 5645 5640 5637 5633 5630 5627 5625 5624 5622 5621 5619 5620 5622 5625
5704 5701 5698 5695 5693 5690 5686 5682 5677 5673 5669 5664 5659 5654 5649 5643 5639 5635 5632 5627 5623 5619 5615 5610 5608 5608 5607 5604 5604 5606 5608 5610